Location: Le Pont-de-Coulogne
(50.9242°N, 1.8700°E)
Time: 08:25:58
(UTC+00:00)

Cosmos 372 Rocket - Pass Details

Date: 15 May 2026
Orbit: 734 x 761 km, 74.1° (Epoch: 6 June)

Event Time Altitude Azimuth Distance (km) Brightness Sun altitude
Rises 21:55:08 0° 337° (NNW) 3,196 9.1 -15.7°
Reaches altitude 10° 21:57:34 10° 342° (NNW) 2,264 7.8 -15.9°
Maximum altitude 22:02:36 57° 61° (ENE) 873 4.3 -16.2°
Enters shadow 22:05:24 25° 130° (SE) 1,450 4.9 -16.4°
